Welcome to the New NWS' Forecast!
Most changes are behind the scenes, but click here for differences you might notice.
Latest weather observations around

Kansas City, Kansas City Downtown Airport (KMKC)

Using English Units (Switch to International System of Units)
Date/ Time (CDT) Wind (mph) Vis. (mi) Weather Sky Cond. Temp (°F) Rel. Humidity Wind Chill (°F) Heat Index (°F) Pressure Precip. (in)
Air Dwpt 6 hour Altimeter (inHg) Sea level (inHg) 1 hr 3 hr 6 hr
Max Min
Jul 18 14:54 ENE 8 10 Partly Cloudy FEW026 SCT070 85 71     63%   90 29.95 29.92      
Jul 18 14:01 ENE 10 10 Cloudy FEW019 BKN045 OVC070 82 70     67%   86 29.97        
Jul 18 13:54 ENE 10 10 Cloudy SCT019 BKN028 OVC060 82 70     67%   86 29.97 29.95      
Jul 18 13:42 NE 9 10 Cloudy FEW017 BKN035 OVC044 81 71     72%   85 29.98        
Jul 18 13:29 ENE 9 10 Cloudy SCT017 BKN026 OVC037 81 70     69%   84 29.98        
Jul 18 12:14 7 10 Mostly Cloudy BKN011 BKN035 80 72     76%   84 30        
Jul 18 12:01 E 8 10 Cloudy BKN009 OVC037 78 71     79%   79 30        
Jul 18 11:54 E 6 10 Cloudy SCT009 OVC033 77 70     79%   78 30 29.98      
Jul 18 10:54 E 3 9 Cloudy FEW006 BKN030 OVC036 75 70     84%   76 30.01 29.99 0    
Jul 18 10:29 ESE 7 4 Light Rain SCT007 SCT019 OVC028 74 69     85%   75 30.02   0    
Jul 18 09:25 E 6 10 Cloudy BKN011 OVC031 73 68     84%   74 30.02   0    
Jul 18 08:54 E 7 6 Light Rain SCT030 BKN034 OVC060 73 67     81%   74 30.01 29.99      
Jul 18 08:50 E 9 3 Light Rain FEW025 BKN032 OVC055 73 68     83%   74 30.01        
Jul 18 08:48 E 7 2 Light Rain and Fog/Mist BKN028 BKN032 OVC055 72 68     88%   73 30.01        
Jul 18 08:31 ENE 7 1.75 Heavy Rain FEW019 BKN031 OVC055 73 67     81%   74 30.01   0    
Jul 18 07:54 ENE 8 10 Cloudy FEW021 BKN045 OVC090 73 68     84%   74 30.01 29.98 0    
Jul 18 06:54 E 8 8 Clear   73 68     84%   74 30 29.98 0    
Jul 18 05:54 E 6 8 Light Rain FEW047 BKN070 OVC095 74 68     82%   75 30 29.98 0    
Jul 18 04:54 E 7 10 Cloudy OVC070 75 67     76%   76 30.01 29.98      
Jul 18 03:54 E 6 10 Mostly Clear FEW090 75 66     74%   76 30.01 29.98      
Jul 18 02:54 7 10 Mostly Cloudy SCT065 BKN110 75 65     71%   76 30.02 29.99      
Jul 18 01:54 E 5 10 Cloudy SCT043 BKN050 OVC110 75 69     82%   76 30.03 30      
Jul 18 00:54 Calm 10 Cloudy FEW055 BKN070 OVC110 75 69     82%   76 30.04 30.02     0
Jul 17 23:54 NE 5 10 Cloudy OVC110 75 68     79%   76 30.03 30.01      
Jul 17 22:54 ENE 7 10 Cloudy OVC110 74 68     82%   75 30.03 30.01      
Jul 17 21:54 E 5 10 Cloudy SCT080 OVC110 74 69     85%   75 30.04 30.01   0  
Jul 17 20:54 ESE 7 10 Cloudy OVC110 74 70     87%   75 30.04 30.02 0    
Jul 17 19:54 SE 7 10 Cloudy SCT025 BKN075 OVC110 75 69     82%   76 30.03 30.01 0    
Jul 17 19:27 S 9 10 Light Rain SCT014 BKN023 OVC100 75 70     84%   76 30.05   0    
Jul 17 18:54 N 8 9 Light Rain FEW034 BKN080 OVC100 76 71     85%   77 30.03 30.01 0   0
Jul 17 17:54 NNW 10 10 Cloudy SCT030 BKN037 OVC050 79 72     79%   82 30.03 30      
Jul 17 16:54 N 13 10 Mostly Cloudy FEW070 BKN100 80 71     74%   84 30.03 30.01      
Jul 17 15:54 N 9 10 Mostly Cloudy FEW080 BKN110 80 71     74%   84 30.04 30.01 0 0  
Jul 17 14:54 NE 8 10 Light Rain BKN110 81 71     72%   85 30.03 30.01 0    
Jul 17 13:54 E 6 10 Partly Cloudy FEW060 FEW075 SCT110 84 70     63%   88 30.03 30.01      
Jul 17 12:54 ENE 7 10 Partly Cloudy SCT110 82 69     65%   85 30.04 30.01      
Jul 17 11:54 E 7 10 Clear CLR 81 68     65%   84 30.06 30.03      
Jul 17 10:54 ESE 3 10 Mostly Clear FEW120 80 67     64%   82 30.06 30.03      
Jul 17 09:54 5 10 Clear CLR 79 66     65%   80 30.06 30.03      
Jul 17 08:54 ENE 8 10 Clear CLR 79 65     62%   80 30.07 30.03      
Jul 17 07:54 E 8 10 Clear CLR 78 64     62%   79 30.04 30.01      
Jul 17 06:54 6 10 Clear CLR 77 65     66%   78 30.04 30.01      
Jul 17 05:54 ENE 8 10 Clear CLR 77 65     66%   78 30.04 30.01      
Jul 17 04:54 E 5 10 Clear CLR 78 66     67%   79 30.03 30      
Jul 17 03:54 E 6 10 Clear   79 67     67%   80 30.02 29.99      
Jul 17 02:54 ENE 8 10 Clear CLR 80 67     64%   82 30.02 29.99      
Jul 17 01:54 E 3 10 Clear CLR 82 68     63%   85 30.03 30      
Jul 17 00:54 ENE 5 10 Clear CLR 83 68     61%   86 30.03 30      
Jul 16 23:54 ENE 5 10 Clear CLR 84 67     57%   87 30.02 29.99      
Jul 16 22:54 NE 6 10 Clear CLR 85 67     55%   88 30.02 29.99      
Jul 16 21:54 N 7 10 Mostly Clear FEW075 84 66     55%   86 30.01 29.98      
Jul 16 20:54 NE 6 10 Mostly Cloudy BKN065 89 65     45%   91 29.98 29.95      
Jul 16 19:54 N 8 10 Clear CLR 91 67     45%   94 29.97 29.93      
Jul 16 18:54 NW 9 10 Mostly Clear FEW065 94 69     45%   99 29.96 29.93      
Jul 16 17:54 3 10 Clear CLR 96 65     36%   99 29.95 29.92      
Jul 16 16:54 Calm 10 Clear CLR 96 64     35%   98 29.96 29.93      
Jul 16 15:54   10 Clear CLR 95 64     36%   97 29.97 29.94      
Jul 16 14:54 NNW 6 10 Clear CLR 94 64     37%   96 29.99 29.96      
Jul 16 13:54 NNE 7 10 Clear CLR 93 62     36%   94 30.01 29.98      
Jul 16 12:54 ENE 7 10 Clear CLR 94 63     36%   95 30.02 29.98      
Jul 16 11:54 Calm 10 Clear CLR 91 65     42%   93 30.03 30.01      
Jul 16 10:54 NNW 8 10 Clear CLR 87 68     53%   91 30.04 30.01      
Jul 16 09:54 NNE 5 10 Clear CLR 87 68     53%   91 30.04 30.01      
Jul 16 08:54 3 10 Mostly Clear FEW055 84 68     59%   87 30.03 30      
Jul 16 07:54 N 3 10 Mostly Cloudy BKN050 80 67     64%   82 30.02 29.99      
Jul 16 06:54 NNE 5 10 Mostly Cloudy BKN050 79 65     62%   80 30 29.97      
Jul 16 05:54 NNW 3 10 Partly Cloudy SCT060 77 65     66%   78 30 29.97      
Jul 16 04:54 NW 3 10 Mostly Clear FEW049 78 64     62%   79 29.99 29.96      
Jul 16 03:54 NW 3 10 Mostly Clear FEW060 79 65     62%   80 29.99 29.96      
Jul 16 02:54 Calm 10 Mostly Cloudy BKN060 81 65     58%   83 29.99 29.96      
Jul 16 01:54 NNE 6 10 Partly Cloudy SCT070 83 64     53%   84 29.99 29.96      
Jul 16 00:54 Calm 10 Mostly Cloudy SCT065 BKN085 84 66     55%   86 29.99 29.96      
Jul 15 23:54 NNW 3 10 Clear CLR 83 68     61%   86 29.99 29.96      
Jul 15 22:54 Calm 10 Clear CLR 85 70     61%   89 29.99 29.96      
Jul 15 21:54 NNW 5 10 Clear CLR 87 68     53%   91 29.96 29.93      
Jul 15 20:54 NNW 5 10 Clear CLR 88 68     52%   92 29.93 29.9      
Jul 15 19:54 NNW 6 10 Clear CLR 91 66     44%   94 29.93 29.9      
Jul 15 18:54 N 6 10 Clear CLR 92 65     41%   94 29.93 29.9      
Jul 15 17:54 NW 9 10 Clear CLR 95 64     36%   97 29.93 29.9      
Jul 15 16:54   10 Clear CLR 96 64     35%   98 29.93 29.9      
Jul 15 15:54 NNW 3 10 Clear CLR 95 66     39%   98 29.95 29.92      
May 15 11:54 WNW 6 10 Mostly Cloudy FEW027 SCT034 BKN075 76 62     62%   76 29.98 29.96      
May 14 19:54 ENE 8 10 Clear   81 66     61%   83 29.78 29.75      
May 14 17:54 SSW 5 10 Clear CLR 83 65     55%   85 29.81 29.78      
May 14 10:54 W 7 10 Mostly Clear FEW034 83 68     61%   86 29.91 29.88      
May 13 20:54 S 11 10 Clear CLR 85 66     53%   87 29.87 29.84      
May 13 02:54 S 9 10 Partly Cloudy SCT065 76 64     67%   76 29.91 29.88      
May 12 09:20 NNE 8 9 Light Rain FEW090 BKN110 72 64     76%   72 29.91   0    
May 12 03:54 S 11 10 Clear CLR 75 62     64%   75 29.81 29.78      
May 11 23:54 S 15 10 Clear CLR 79 60     52%   79 29.82 29.8      
Jun 12 04:54 S 9 10 Clear CLR 74 65     74%   74 29.89 29.86      
Jun 11 15:54   10 Clear CLR 92 69     47%   97 29.79 29.76      
Jun 11 13:54 S 17 10 Clear CLR 91 71     52%   98 29.81 29.78      
Jun 11 05:54   10 Clear CLR 73 65     76%   74 29.83 29.8      
Jun 10 19:54   10 Partly Cloudy SCT042 84 69     61%   88 29.74 29.72      
Jun 10 07:54 SSW 11 10 Clear CLR 73 63     71%   73 29.83 29.81      
Jun 10 06:54 S 9 10 Clear CLR 70 61     73%     29.83 29.81      
Jun 07 13:54 ENE 7 10 Clear CLR 81 47     30%   80 30.08 30.06